Regional Weather Roundup
Issued by NWS

Home | Current Version | Previous Version | Text Only | Print | Product List | Glossary On
Versions: 1 2 3 4 5 6 7 8 9 10 11 12 13 14 15 16 17 18 19 20 21 22 23 24 25 26 27 28 29 30 31 32 33 34 35 36 37 38 39 40 41 42 43 44 45 46 47 48 49 50
568
ASUS44 KLIX 060101
RWRLA
LOUISIANA WEATHER ROUNDUP
NATIONAL WEATHER SERVICE NEW ORLEANS LA
700 PM CST THU MAR 05 2015

NOTE: "FAIR" INDICATES FEW OR NO CLOUDS BELOW 12,000 FEET WITH NO
      SIGNIFICANT WEATHER AND/OR OBSTRUCTIONS TO VISIBILITY.
      SKY/WX - SKY CONDITION AND SIGNIFICANT WEATHER.
      TMP - AIR TEMPERATURE.    DP   - DEWPOINT TEMPERATURE.
      RH  - RELATIVE HUMIDITY.  PRES - PRESSURE.
      HX  - HEAT INDEX.         WCI  - WIND CHILL INDEX.

*  THESE STATIONS ARE NOT NWS OR FAA STATIONS AND ARE NOT UNDER
   NWS QUALITY CONTROL.

LAZ040-048-061>063-065-066-069-060200-
SOUTHEAST LOUISIANA

CITY           SKY/WX    TMP DP  RH WIND       PRES   REMARKS
N.O. AUDUBON     N/A     38  33  80 MISG        N/A
N.O. INTL ARPT CLOUDY    38  29  70 N21G30    30.38R WCI  28
N.O. LAKEFRONT CLOUDY    40  31  70 N30G36    30.38R WCI  28
SLIDELL        CLOUDY    36  29  75 N13G24    30.37R WCI  27
BATON ROUGE    PTCLDY    34  22  61 N8G18     30.44R WCI  27
BOOTHVILLE     CLOUDY    44  38  79 N15G30    30.32R
BELLE CHASSE   CLOUDY    39  29  67 N10G28    30.36R WCI  32
BOGALUSA*        N/A     36  28  74 N14G20    30.42R WCI  27
GALLIANO*      CLOUDY    42  34  73 N17G30    30.35R
NEW ROADS*     NOT AVBL
GONZALES*      NOT AVBL
HAMMOND*       NOT AVBL
HOUMA*         CLOUDY    38  30  74 N20G30    30.37R WCI  27
PORT FOURCHON*   N/A    N/A N/A N/A N25       30.35R

$$

LAZ041-044-053-054-060200-
SOUTHWEST LOUISIANA

CITY           SKY/WX    TMP DP  RH WIND       PRES   REMARKS
LAKE CHARLES   CLEAR     40  27  59 NE13      30.46R WCI  32
LAFAYETTE      PTCLDY    35  22  58 N22G30    30.45R WCI  23
PATTERSON      CLOUDY    37  25  60 N18G32    30.39R WCI  27
SALT POINT       N/A     38  27  64 N14G24    30.38R WCI  30
NEW IBERIA     NOT AVBL
CHENAULT AIRPK CLEAR     37  27  65 N10G18    30.47R WCI  30

$$

LAZ027-028-060200-
CENTRAL LOUISIANA

CITY           SKY/WX    TMP DP  RH WIND       PRES   REMARKS
FORT POLK      CLEAR     36  21  55 N7        30.49R WCI  30
ALEXANDRIA INT CLEAR     35  21  56 N7        30.49R WCI  29
ALEXANDRIA     CLEAR     36  21  54 NE3       30.50R

$$

LAZ001-002-060200-
NORTHWEST LOUISIANA

CITY           SKY/WX    TMP DP  RH WIND       PRES   REMARKS
SHREVEPORT     CLEAR     37  21  52 N7        30.54R WCI  32
BARKSDALE AFB  CLEAR     35  21  57 NE5       30.55R WCI  31
DTN SHREVEPORT CLEAR     36  18  48 N5        30.55R WCI  32

$$

LAZ014-016-060200-
NORTHEAST LOUISIANA

CITY           SKY/WX    TMP DP  RH WIND       PRES   REMARKS
MONROE         CLEAR     33  17  51 NE9       30.56R WCI  25
TALLULAH       CLEAR     31  20  63 N15G24    30.53R WCI  20

$$




USA.gov is the U.S. government's official web portal to all federal, state and local government web resources and services.